Find Starlink 1572

NORAD ID: 46060 Int'l Des: 2020-055 Owner: SPXS Country: US Constellation: starlink operational
LEOCIRCULAR

現在のビュー

3D地球を読み込み中...

About Starlink 1572

Starlink 1572 (NORAD 46060) is a starlink constellation satellite (v1.0) launched Aug 7, 2020 by SPXS of US. It operates in LEO, CIRCULAR orbit with a mass of 260.00 kg.

次回通過

Passes for default location (London). Set your location on the main map for personalized predictions.

高度履歴

Loading altitude history...

軌道要素

1 46060U 20055AK 26255.24053059 .00003415 00000-0 12178-3 0 9991
2 46060 53.1597 327.3073 0001212 87.8482 272.2658 15.31697164337600
Epoch: Sep 12, 2026 • Age: 18 hours

現在のステータス

高度 473.2 km
遠地点 / 近地点 N/A
速度 7.63 km/s
衛星直下点 37.89°N, 122.98°E
打ち上げ日 Aug 7, 2020
運用期間 6 years
タイプ internet

技術仕様

分類 Payload
質量 260.00 kg
乾燥質量 248.00 kg
総質量 260.00 kg
長さ 0.20 m
直径 2.80 m
スパン 9.00 m
形状 Box + pan
製造者 SPXS
バスタイプ Starlink
フェーズステータス In Orbit
所有者/国 SPXS/US

Most Searched